カタログに戻る

UWE-4

運用中アマチュア無線PO
NORAD 43880·PAYLOAD·🇩🇪 Germany

打ち上げ Dec 27, 2018 から Vostochny Cosmodrome

Loading…

次のパス (今後24時間)

TLE

最新Source: AMSAT

元期: Sep 13, 2026, 19:01 UTC

1 43880U 18111E   26256.79245483  .00037613  00000-0  63234-3 0  9999
2 43880  97.5820 189.6194 0007371  27.6586 332.5056 15.51636958424492

AllMySatでUWE-4をリアルタイム追跡

Download on the App Store